PST,Max TemperatureF,Mean TemperatureF,Min TemperatureF,Max Dew PointF,MeanDew PointF,Min DewpointF,Max Humidity, Mean Humidity, Min Humidity, Max Sea Level PressureIn, Mean Sea Level PressureIn, Min Sea Level PressureIn, Max VisibilityMiles, Mean VisibilityMiles, Min VisibilityMiles, Max Wind SpeedMPH, Mean Wind SpeedMPH, Max Gust SpeedMPH,PrecipitationIn, CloudCover, Events, WindDirDegrees
2012-11-1,64,58,51,55,54,52,100,90,68,30.05,30.03,30.00,10,8,2,10,3,,0.11,5,,142
2012-11-2,66,57,48,54,49,45,100,80,52,30.08,30.05,30.04,10,10,5,8,1,,0.00,0,,276
2012-11-3,69,58,46,54,50,46,100,77,49,30.17,30.12,30.08,10,10,10,7,1,,0.00,0,,278
2012-11-4,71,62,53,55,51,46,94,70,49,30.24,30.19,30.17,10,10,10,7,2,,0.00,0,,111
2012-11-5,75,65,55,57,51,43,94,62,41,30.21,30.16,30.11,10,10,10,9,2,,0.00,0,,103
2012-11-6,78,68,57,54,46,39,82,49,26,30.14,30.10,30.05,10,10,7,10,5,,0.00,0,,103
2012-11-7,73,64,55,50,44,37,82,50,33,30.05,29.99,29.87,10,10,10,12,6,17,0.00,0,,139
2012-11-8,55,48,41,48,42,34,93,81,50,29.92,29.86,29.83,10,10,1,16,10,24,0.05,6,,182
2012-11-9,48,42,37,39,37,34,93,85,62,29.94,29.90,29.87,10,9,2,9,5,,0.00,4,,139
2012-11-10,51,44,37,39,36,32,93,80,50,30.23,30.07,29.93,10,10,10,10,6,,0.00,4,,141
2012-11-11,53,44,35,36,32,28,87,68,41,30.37,30.32,30.24,10,10,10,9,5,,0.00,0,,99
2012-11-12,57,48,39,39,35,32,81,63,38,30.37,30.32,30.26,10,10,10,10,4,,0.00,1,,96
2012-11-13,64,53,42,46,40,32,93,64,40,30.27,30.19,30.11,10,10,10,10,4,,0.00,0,,102
2012-11-14,66,57,48,48,45,41,87,68,49,30.15,30.10,30.05,10,10,10,9,4,,0.00,0,,99
2012-11-15,66,57,48,46,38,32,82,55,28,30.06,30.02,29.98,10,10,10,13,4,,0.00,0,,106
2012-11-16,57,52,48,52,44,36,94,71,47,30.04,29.99,29.93,10,9,2,8,3,,0.00,6,,110
2012-11-17,55,53,51,55,53,52,100,96,88,29.98,29.91,29.86,10,5,0,17,11,25,0.20,7,,162
2012-11-18,53,50,48,52,46,39,100,84,58,30.19,30.10,29.98,10,8,1,13,6,16,0.07,6,,160
2012-11-19,62,55,48,46,45,43,93,73,52,30.25,30.20,30.16,10,10,10,12,5,,0.00,4,,132
2012-11-20,60,56,51,54,48,45,100,72,59,30.18,30.10,30.04,10,9,1,13,7,21,0.05,6,,153
2012-11-21,57,52,46,54,51,46,100,95,77,30.20,30.14,30.06,10,6,1,13,6,17,0.33,5,,174
2012-11-22,62,52,41,48,46,39,100,84,59,30.25,30.20,30.17,10,10,10,8,1,,0.00,0,,104
2012-11-23,64,56,48,52,45,39,94,73,52,30.29,30.23,30.19,10,10,10,10,3,,0.00,0,,105
2012-11-24,66,54,42,48,42,36,100,68,37,30.21,30.13,30.04,10,10,10,5,0,,0.00,0,,100
2012-11-25,62,52,42,46,41,34,93,68,42,30.04,29.99,29.94,10,10,10,8,2,,0.00,0,,105
2012-11-26,64,55,46,48,41,34,93,65,39,30.09,30.04,29.98,10,10,10,9,3,,0.00,0,,101
2012-11-27,60,52,44,48,40,32,100,67,44,30.11,30.06,30.02,10,9,5,21,4,97,0.00,0,,114
2012-11-28,55,52,50,54,49,43,100,87,67,30.07,29.98,29.89,10,7,1,26,6,37,0.15,6,,152
2012-11-29,59,55,51,55,52,48,100,89,67,30.09,30.00,29.88,10,8,2,17,9,31,0.19,6,,163
2012-11-30,57,55,53,55,55,54,100,98,88,30.02,29.90,29.79,10,4,0,23,15,37,1.01,8,,189